Regional Weather Roundup
Issued by NWS Cleveland, OH

Home | Current Version | Previous Version | Text Only | Print | Product List | Glossary Off
Versions: 1 2 3 4 5 6 7 8 9 10 11 12 13 14 15 16 17 18 19 20 21 22 23 24 25 26 27 28 29 30 31 32 33 34 35 36 37 38 39 40 41 42 43 44 45 46 47 48 49 50

861
ASUS41 KCLE 281312
RWRCLE
OHIO REGIONAL WEATHER ROUNDUP
NATIONAL WEATHER SERVICE WILMINGTON, OH
800 AM EST TUE FEB 28 2017

NOTE: "FAIR" INDICATES FEW OR NO CLOUDS BELOW 12,000 FEET WITH NO
SIGNIFICANT WEATHER AND/OR OBSTRUCTIONS TO VISIBILITY.

OHZ001>008-015>018-024>027-034-035-043-044-281400-
   NORTHWEST OHIO

CITY           SKY/WX    TMP DP  RH WIND       PRES   REMARKS
DEFIANCE       LGT RAIN  42  40  92 S7        30.05F
FINDLAY        CLOUDY    43  37  79 SE10      30.07F
TOLEDO EXPRESS LGT RAIN  40  40 100 SE6       30.06F FOG
TOLEDO EXEC    LGT RAIN  43  41  93 SE8       30.08R FOG
LIMA           LGT RAIN  45  41  86 SE14      30.05F
$$

OHZ009>014-019>023-028>033-038-089-281400-
   NORTHEAST OHIO

CITY           SKY/WX    TMP DP  RH WIND       PRES   REMARKS
CLE-HOPKINS    MOCLDY    44  36  73 SE10      30.13F
CLE-LAKEFRONT  MOCLDY    44  36  73 SE12      30.11F
CUY CO. ARPT   MOCLDY    43  34  70 S9        30.13F
LORAIN-ELYRIA  CLOUDY    42  36  79 S9        30.13F
ASHTABULA      CLOUDY    40  37  89 SE10      30.18F
AKRON-CANTON   MOCLDY    41  35  79 SE12      30.13F
WOOSTER        FAIR      37  36  96 CALM      30.15F FOG
MANSFIELD      MOCLDY    41  37  86 S13       30.12F
YOUNGSTOWN     CLOUDY    42  36  79 SE10      30.18F
$$

OHZ042-051>053-060>062-070>072-077>081-281400-
  SOUTHWEST OHIO

CITY           SKY/WX    TMP DP  RH WIND       PRES   REMARKS
CINC-COVINGTON LGT RAIN  47  46  97 SE8       30.06F FOG
CINC-LUNKEN    LGT RAIN  45  44  97 CALM      30.11S
HAMILTON       HVY RAIN  46  46 100 E3        30.10R FOG
DAYTON         LGT RAIN  44  42  93 S8        30.08F
WRIGHT-PAT AFB LGT RAIN  45  44  98 SE8       30.07F
DAYTON GENERAL LGT RAIN  46  44  93 S14       30.07F
WILMINGTON     LGT RAIN  45  43  93 S9        30.10F
$$

OHZ036-037-039>041-045>050-054>059-063>069-073>076-082>088-281400-
  CENTRAL AND SOUTHEAST OHIO

CITY           SKY/WX    TMP DP  RH WIND       PRES   REMARKS
COLUMBUS       CLOUDY    47  38  71 SE8       30.14F
OSU AIRPORT    LGT RAIN  44  40  85 SE8       30.12F
BOLTON FIELD   CLOUDY    41  37  87 SE5       30.14F
RICKENBACK AFB RAIN      40  40  98 SE5       30.14F
NEWARK         CLOUDY    39  37  92 CALM      30.15F FOG
MARION         MOCLDY    44  38  79 S12       30.11F
LANCASTER      CLOUDY    43  38  82 SE9       30.15F
ZANESVILLE     MOCLDY    36  35  96 CALM      30.17F
NEW PHILLY     FAIR      35  35 100 E3        30.18F FOG
$$




USA.gov is the U.S. government's official web portal to all federal, state and local government web resources and services.